Location: Alfortville
(48.8058°N, 2.4204°E)
Time: 12:16:58
(UTC+00:00)

CUTE-I - Pass Details

Date: 07 April 2023
Orbit: 809 x 823 km, 98.7° (Epoch: 01 June)

Event Time Altitude Azimuth Distance (km) Brightness Sun altitude
Rises 18:55:16 0° 222° (SW) 3,326 ? -4.9°
Reaches altitude 10° 18:59:19 10° 253° (WSW) 2,406 ? -5.6°
Maximum altitude 19:01:17 12° 275° (W) 2,273 ? -5.9°
Drops below altitude 10° 19:03:15 10° 297° (WNW) 2,416 ? -6.2°
Sets 19:07:22 0° 328° (NNW) 3,360 ? -6.8°
